Laurent Verva

Laurent Verva

Statistiques 2026

  • Courses courues : 42
  • Nb de victoires : -
  • Nb de places : 1
  • Écart gagnant : 143
  • Réussite à la gagne : -
  • Réussite à la place : 2%
Musique : 0a 8a 4a 6a 6a 0a 5a 5a Da 2a 9a 6a 5a Da 6a 0a 7a 4a
DateRangCatégorieAlloc.Dist.HippodromeChevalRed. KmSpé.
20/05/18 4 Trot 13 000€ 2 850m Laon Eliott d'Agenville 1'19"0 Attelé
20/05/18 1 Trot 13 000€ 2 850m Laon Easy de Navary 1'17"5 Attelé
08/06/18 D Trot 21 000€ 2 850m Mauquenchy Elisee du Pont Attelé
08/06/18 8 Trot 21 000€ 2 850m Mauquenchy Elliot d'Alci 1'17"3 Attelé
08/06/18 3 Trot 20 000€ 2 875m Mauquenchy Divin de Bougy 1'16"0 Attelé
08/06/18 2 Trot 20 000€ 2 850m Mauquenchy Dauphine d'Alci 1'16"7 Attelé
08/06/18 5 Trot 30 000€ 2 850m Mauquenchy Cannelle d'As 1'17"0 Attelé
12/06/18 7 Mixte 36 000€ 2 850m Vincennes Fayette Tilly 1'17"5 Attelé lire

Est venue aux premiers rangs aux tribunes, puis a cédé dans le tournant final.

01/05/24 6 Trot 13 500€ 2 850m Laon Kiss Me Mencourt 1'19"1 Attelé
01/05/24 5 Trot 14 500€ 2 850m Laon Liberty d'Alci 1'20"1 Attelé
01/05/24 9 Trot 24 000€ 2 875m Laon Geole de la Touque 1'15"9 Attelé
01/05/24 D Trot 13 500€ 2 850m Laon Karl Attelé
12/05/24 4 Trot 10 000€ 2 850m Laon Kyo de Banville 1'19"0 Attelé
12/05/24 4 Trot 14 500€ 2 850m Laon Karynndo Robsen 1'17"5 Attelé
12/05/24 2 Trot 10 000€ 2 850m Laon Kermesse du Crocq 1'19"2 Attelé
26/05/24 0 Trot 21 000€ 2 850m Laon Heroica Attelé
26/05/24 D Trot 14 500€ 2 850m Laon La Lilloise Attelé
26/05/24 D Trot 14 500€ 2 850m Laon Life Attelé
09/06/24 1 Trot 21 000€ 2 850m Laon Impress Me 1'15"0 Attelé
05/08/24 5 Trot 21 000€ 2 850m Mauquenchy Kerdyna Match 1'16"3 Attelé
05/08/24 0 Trot 30 000€ 2 850m Mauquenchy Hibiscus des Baux Attelé lire

N'a pu que figurer au sein du peloton.

21/08/24 0 Trot 60 000€ 2 850m Vincennes Javerne Attelé lire

N'a pu que figurer au sein du peloton.

06/09/24 0 Trot 46 000€ 2 850m Vincennes Jasmine d'Ouilly Attelé lire

N'a joué aucun rôle utile.

29/09/24 D Trot 12 000€ 2 850m Laon Lipton Tonic Attelé
29/09/24 7 Trot 12 000€ 2 850m Laon Le Vent du Houlet 1'21"1 Attelé
29/09/24 7 Trot 12 000€ 2 850m Laon Kiss Me Mencourt 1'19"6 Attelé
29/09/24 D Trot 12 000€ 2 850m Laon Keny Love de Rem Attelé
29/09/24 9 Trot 12 000€ 2 850m Laon Lily Rose du Ganep 1'23"8 Attelé
29/09/24 2 Trot 12 000€ 2 850m Laon Lacouma 1'19"6 Attelé
29/09/24 5 Trot 12 000€ 2 850m Laon Koblack Sautreuil 1'18"6 Attelé
13/10/24 D Trot 14 500€ 2 850m Laon Lipton Tonic Attelé
13/10/24 5 Trot 14 500€ 2 850m Laon Love With You 1'19"4 Attelé
17/11/24 2 Trot 15 000€ 2 850m Mauquenchy Kapitan Ter Blekte Attelé
17/11/24 2 Trot 15 000€ 2 850m Mauquenchy Karlo 1'15"4 Attelé
17/11/24 4 Trot 15 000€ 2 850m Mauquenchy Kiss Me Mencourt 1'15"6 Attelé
17/11/24 1 Trot 15 000€ 2 850m Mauquenchy La Callas 1'17"7 Attelé
22/11/24 0 Trot 19 000€ 2 850m Mauquenchy Hooker du Pech Attelé
22/11/24 9 Trot 17 500€ 2 850m Mauquenchy Jivaso Efbe 1'18"8 Attelé
13/01/25 0 Trot 21 000€ 2 875m Mauquenchy Khitara Attelé
13/01/25 D Trot 24 000€ 2 850m Mauquenchy Hercule de Bea Attelé lire

Longtemps sur une cinquième ligne, s'est montré fautif pour finir.

01/05/25 7 Trot 14 500€ 2 850m Laon Maestro Castelets 1'19"4 Attelé
01/05/25 6 Trot 24 000€ 2 850m Laon Hercule de Bea 1'15"0 Attelé
01/05/25 D Trot 13 500€ 2 850m Laon Label Daddy Attelé
08/06/25 8 Trot 21 000€ 2 850m Laon Jerimow 1'16"8 Attelé
08/06/25 D Trot 14 500€ 2 850m Laon Lola d'Abbemont Attelé
08/06/25 3 Trot 14 500€ 2 850m Laon Majeste Desbois 1'20"0 Attelé
06/08/25 7 Trot 28 000€ 2 875m Mauquenchy Hilton du Houlet 1'15"5 Attelé
28/09/25 5 Trot 12 000€ 2 850m Laon Maestro du Val 1'19"6 Attelé
28/09/25 0 Trot 12 000€ 2 850m Laon Lily Rose du Ganep Attelé
28/09/25 6 Trot 12 000€ 2 850m Laon Madeleine Renka 1'18"7 Attelé